CZ-6A DEB, 56652

Orbit data source: Space-Track

CZ-6A DEB, 56652 is space debris in SSO originally from a launch on Fri, 11 Nov 2022 UTC launched from the Taiyaun Space Center, China (TSC). Debris objects in space refer to the collection of defunct objects orbiting the Earth. Examples of debris include non-operational satellites, rocket bodies, and fragments generated from explosions, collisions, or faulty payload assembly.

Loading next visibility...
Identifier
56652, 2022-151AGC
Orbit
SSO
Country
Flag of CNCN / PRC
Related business
Manufacturer
SAST
Mission
Spacecraft
Bus & Motor
Unknown
Mass
Unknown
Launch date (UTC)
2022-11-11 (4 years ago)
Launch vehicle
Unknown
Launch site
Taiyaun Space Center, China (TSC)
Object type
Payload
Rocket body
Debris
Shape & HBR
Unknown shape, 0.1 m
Radar Cross Section
Medium (>0.1 m² and <1 m²)

Expand to show TLE details & history
Last TLE update: 4 days ago

TLE from 4 days ago
0 CZ-6A DEB
1 56652U 22151AGC 26169.48009098  .00002740  00000-0  11193-2 0  9997
2 56652  98.8107 186.3468 0074471 340.8918  18.9471 14.26651795171679
Epoch: 2026-06-18T11:31Z
TLE epoch observation values (Epoch: 2026-06-18T11:31:19.860Z)
Latitude
-0.00007°
Longitude
106.79124°
Altitude
755.317 km
Speed
7.503 km/s
True Right ascension
12h 25m 23s
True Declination
0° 00' 00"
Sunlit
Object was in daylight at epoch
Visualization orbit readout
Latitude
Unknown
Longitude
Unknown
Altitude
Unknown
Speed
Unknown
Apparent Right ascension
Unknown
Apparent Declination
Unknown
Sunlit
N/A
Visualization observer readout
Local Sidereal Time
21:51:19
Azimuth
Unknown
Elevation
Unknown
Doppler factor
Unknown
Orbital elements
Apogee altitude
853.556 km
Perigee altitude
746.642 km
Semi-major axis
7,178.236 km
Eccentricity
0.00745
Inclination
98.8107°
RAAN
186.3468°
Arg. of periapsis
340.8918°
True anomaly
19.22665°
Mean anomaly
18.9471°
Eccentric anomaly
19.08663°
Mean motion
3.56875 °/min
Orbital period
100.88 mins
BSTAR
0.0011193
Loading maneuver chart data...
Computing Atmospheric mass density...
Loading historical data...
Loading historical data...
Loading historical data...
Loading historical data...
Loading historical data...
Loading historical data...
Loading historical data...

Documentation

Showing up to 5 results
|